User: anonymous   Login
Location: Unspecified
(0.0000°N, 0.0000°E)
Time: 20:47:14
(UTC+00:00)
Language:

PAYLOAD A - Orbit

View from above orbital plane
View from above orbital plane
View from above satellite
View from above satellite

Ground track
Ground track

The orbit is defined by the following mean orbital elements,

1 39208U          26145.47507756 +.00000000 +00000-0 +83229-4 0 00002
2 39208  98.0885 148.8294 0007018 210.2420 149.8383 14.72254182    07
Epoch (UTC): 25 May 2026 11:24:06
Eccentricity: 0.0007018
inclination: 98.0885°
perigee height: 649 km
apogee height: 659 km
right ascension of ascending node: 148.8294°
argument of perigee: 210.2420°
revolutions per day: 14.72254182
mean anomaly at epoch: 149.8383°

The dashed part of the orbit path shows where the satellite is in the earth's shadow,  

DLR